sat.trackr.live / text

‹ back to catalog

HULIANWANG DIGUI-160

NORAD 68134 · 2026-047F

PAYLOAD ACTIVE UNKNOWN

§ Identity

Operator
Country
PRC
Launch date
2026-03-12
Launch site
WSC
Launch vehicle
Mass (kg)
RCS (m²)

External: N2YO · Heavens-Above · Gunter

§ Orbital elements

Epoch: 2026-09-19T21:43:11.413344Z

Period
108.33 min
Inclination
50.0067°
Eccentricity
0.0001114
Mean motion
13.29329804 rev/d
Perigee alt
1,148.5 km
Apogee alt
1,150.1 km
Semi-major
7,527.4 km
B*
3.7088e-5
RAAN
76.2987°
Arg perigee
71.4776°
Mean anomaly
288.6217°
Rev number
2,566

§ Raw data

HULIANWANG DIGUI-1601 68134U 26047F   26262.90499321 -.00000107  00000+0  37088-4 0  99942 68134  50.0067  76.2987 0001114  71.4776 288.6217 13.29329804 25664

JSON: /api/v1/satellites/68134 · /tle

For live sub-satellite position, see the globe view (requires WebGL).

§ Visibility from observer

Set your observer location to see the next 7 days of passes ≥ 10°. The values pass through the URL so the page stays shareable.

No JS? Fill the form by hand. The geolocation button needs JavaScript.